Hettinger, ND

11:25 PM MDT on August 19, 2017 (GMT -0600)
Hettinger Municipal

Weather History for KHEI - December, 2013

Change the Weather History Date:

Wednesday, December 18, 2013

  Actual Average Record
Temperature  
Mean Temperature 29 °F -  
Max Temperature 42 °F 29 °F 54 °F (2011)
Min Temperature 16 °F 6 °F -24 °F (1996)
Degree Days  
Heating Degree Days 36 48  
Month to date heating degree days 977 820  
Since 1 July heating degree days 3001 2950  
Moisture  
Dew Point 22 °F    
Average Humidity 79    
Maximum Humidity 92    
Minimum Humidity 55    
Precipitation  
Precipitation T in 0.01 in 0.02 in (2002)
Month to date precipitation 0.06 0.15  
Year to date precipitation 24.79 15.94  
Sea Level Pressure  
Sea Level Pressure 29.84 in    
Wind  
Wind Speed 10 mph (NNW)    
Max Wind Speed 23 mph    
Max Gust Speed 26 mph    
Visibility 8 miles    
Events Snow    
T = Trace of Precipitation, MM = Missing Value Source: NWS Daily Summary

Daily Weather History Graph

Daily Weather History Graph

Search for Another Location

Airport or City:

Trip Planner

Search our weather history database for the weather conditions in past years. The results will help you decide how hot, cold, wet, or windy it might be!

Date:

Astronomy

Dec. 18, 2013 Rise Set
Actual Time 7:28 AM MST 4:06 PM MST
Civil Twilight 6:53 AM MST 4:41 PM MST
Nautical Twilight 6:15 AM MST 5:19 PM MST
Astronomical Twilight 5:38 AM MST 5:55 PM MST
Moon 5:45 PM MST (12/18) 8:04 AM MST (12/18)
Length of Visible Light 9h 48m
Length of Day
8h 38m
Full, 98% of the Moon is Illuminated
Dec 18
Full
Dec 25
Last Quarter
Jan 1
New
Jan 7
First Quarter
Jan 15
Full

Hourly Weather History & Observations

Time (MST) Temp. Windchill Dew Point Humidity Pressure Visibility Wind Dir Wind Speed Gust Speed Precip Events Conditions
12:53 AM 28.9 °F 21.1 °F 21.9 °F 75% 29.76 in 10.0 mi WNW 8.1 mph - N/A   Clear
1:53 AM 28.9 °F 25.2 °F 21.9 °F 75% 29.75 in 10.0 mi NW 3.5 mph - N/A   Clear
2:53 AM 28.9 °F - 21.9 °F 75% 29.76 in 10.0 mi Calm Calm - N/A   Clear
3:53 AM 27.0 °F 23.0 °F 21.0 °F 78% 29.76 in 10.0 mi NW 3.5 mph - N/A   Clear
4:53 AM 30.0 °F 25.2 °F 21.0 °F 69% 29.75 in 10.0 mi West 4.6 mph - N/A   Clear
5:53 AM 24.1 °F - 19.0 °F 81% 29.74 in 10.0 mi Calm Calm - N/A   Clear
6:53 AM 23.0 °F - 19.0 °F 85% 29.74 in 10.0 mi Calm Calm - N/A   Clear
7:53 AM 30.9 °F 24.3 °F 21.9 °F 69% 29.74 in 10.0 mi West 6.9 mph - N/A   Clear
8:53 AM 32.0 °F 24.8 °F 23.0 °F 69% 29.76 in 10.0 mi NW 8.1 mph - N/A   Clear
9:53 AM 41.0 °F 34.3 °F 27.0 °F 57% 29.77 in 10.0 mi WNW 11.5 mph - N/A   Clear
10:53 AM 39.9 °F 33.4 °F 27.0 °F 60% 29.77 in 10.0 mi West 10.4 mph - N/A   Clear
11:53 AM 42.1 °F 36.6 °F 28.0 °F 58% 29.75 in 10.0 mi West 9.2 mph - N/A   Clear
12:53 PM 42.1 °F 36.6 °F 28.0 °F 58% 29.75 in 10.0 mi West 9.2 mph - N/A   Clear
1:53 PM 39.9 °F 32.5 °F 28.0 °F 63% 29.76 in 10.0 mi WNW 12.7 mph - N/A   Clear
2:53 PM 37.9 °F 30.0 °F 28.0 °F 68% 29.78 in 10.0 mi NW 12.7 mph - N/A   Clear
3:53 PM 34.0 °F 26.6 °F 28.0 °F 79% 29.83 in 10.0 mi NW 9.2 mph - N/A   Clear
4:53 PM 33.1 °F 24.4 °F 27.0 °F 78% 29.88 in 10.0 mi NNW 11.5 mph - N/A   Mostly Cloudy
5:35 PM 32.0 °F 21.2 °F 27.0 °F 82% 29.81 in 10.0 mi North 16.1 mph - N/A   Overcast
5:53 PM 32.0 °F 22.5 °F 27.0 °F 82% 29.91 in 10.0 mi North 12.7 mph - N/A   Overcast
6:17 PM 30.9 °F 19.8 °F 27.0 °F 85% 29.82 in 10.0 mi North 16.1 mph - N/A   Overcast
6:53 PM 30.0 °F 18.7 °F 27.0 °F 88% 29.93 in 9.0 mi North 16.1 mph - N/A   Overcast
7:53 PM 27.0 °F 15.2 °F 24.1 °F 89% 29.95 in 10.0 mi North 15.0 mph - 0.00 in   Overcast
8:02 PM 27.0 °F 16.7 °F 23.0 °F 85% 29.86 in 10.0 mi North 11.5 mph - N/A   Overcast
8:13 PM 27.0 °F 16.7 °F 23.0 °F 85% 29.86 in 10.0 mi North 11.5 mph - N/A   Overcast
8:28 PM 26.1 °F 15.6 °F 23.0 °F 88% 29.86 in 10.0 mi North 11.5 mph - N/A   Overcast
8:53 PM 26.1 °F 15.0 °F 23.0 °F 88% 29.95 in 9.0 mi North 12.7 mph - N/A   Overcast
9:53 PM 19.9 °F 5.2 °F 18.0 °F 92% 29.98 in 5.0 mi NNE 17.3 mph - N/A   Overcast
10:19 PM 19.0 °F 5.0 °F 16.0 °F 88% 29.90 in 6.0 mi NNE 15.0 mph - N/A   Overcast
10:53 PM 18.0 °F 2.6 °F 15.1 °F 88% 30.00 in 3.0 mi NNE 17.3 mph - 0.00 in Snow Light Snow
11:00 PM 17.1 °F 1.0 °F 15.1 °F 92% 29.91 in 1.8 mi NNE 18.4 mph - 0.00 in Snow Light Snow
11:21 PM 17.1 °F 1.0 °F 15.1 °F 92% 29.91 in 1.5 mi NE 18.4 mph - 0.00 in Snow Light Snow
11:39 PM 17.1 °F 0.6 °F 14.0 °F 88% 29.91 in 1.2 mi NNE 19.6 mph - 0.00 in Snow Light Snow
11:53 PM 17.1 °F -0.3 °F 12.9 °F 84% 30.00 in 1.2 mi NNE 21.9 mph - 0.00 in Snow Light Snow